Hourly Data Report for April 17, 2019

KUGAARUK CLIMATE
NUNAVUT
Current Station Operator: ECCC - MSC

68°32'15.060" N
89°47'47.020" W
15.80 m
2303094
71407
NBB

Download Data

Hourly Data (April 2019)
Hourly Data Report for April 17, 2019
TIME
LST
Temp Definition
°C
Dew Point Definition
°C
Rel Hum Definition
%
Precip. Amount Definition
mm

Wind Dir Definition
10's deg

Wind Spd Definition
km/h
Visibility Definition
km
Stn Press Definition
kPa
Hmdx Definition


Wind Chill Definition


Weather Definition


00:00 -26.3 -28.9 78 0.0 26 11   101.88   -35 LegendNANA
01:00 -27.0 -29.7 77 0.0 26 11   101.85   -36 LegendNANA
02:00 -26.7 -29.4 78 0.0 27 11   101.84   -36 LegendNANA
03:00 -26.8 -29.5 78 0.0 26 14   101.81   -37 LegendNANA
04:00 -26.7 -29.5 77 0.0 26 19   101.78   -39 LegendNANA
05:00 -27.4 -30.4 75 0.0 25 16   101.76   -39 LegendNANA
06:00 -24.5 -27.6 76 0.0 27 11   101.75   -33 LegendNANA
07:00 -24.0 -27.3 74 0.0 25 9   101.70   -31 LegendNANA
08:00 -23.3 -26.6 74 0.0 26 15   101.67   -33 LegendNANA
09:00
10:00
11:00 -21.1 -25.1 70 0.0 27 15   101.59   -30 LegendNANA
12:00 -20.5 -25.0 67 0.0 27 12   101.56   -29 LegendNANA
13:00 -19.8 -24.7 66 0.0 27 10   101.56   -27 LegendNANA
14:00 -19.3 -24.2 65 0.0 27 10   101.56   -26 LegendNANA
15:00 -19.0 -24.0 65 0.0 28 9   101.55   -26 LegendNANA
16:00 -19.1 -23.9 66 0.0 25 5   101.55   -23 LegendNANA
17:00 -19.1 -23.7 67 0.0 0 1   101.55   -20 LegendNANA
18:00 -21.6 -25.5 71 0.0 15 1   101.54   -22 LegendNANA
19:00 -22.7 -25.8 76 0.0   0   101.52     LegendNANA
20:00 -23.5 -26.1 79 0.0 10 1   101.50   -24 LegendNANA
21:00 -24.5 -27.1 79 0.0 26 2   101.48   -26 LegendNANA
22:00 -26.6 -29.3 78 0.0 0 1   101.49   -28 LegendNANA
23:00 -26.2 -28.9 78 0.0 25 3   101.48   -29 LegendNANA

Notes on Data Quality.

Legend

  • E = Estimated
  • M = Missing
  • NA = Not Available*
  • [empty] = Indicates an unobserved value
Date modified: